map of NKC home
NKC - Airport
Location
City:  Nouakchott, Mauritania
Name:Nouakchott-Oumtounsy International Airport
ICAO:GQNO
IATA:NKC

Details
Type:Airport (Aerodrome, Airfield)
Use:Public/Civil, International (customs port of entry)
Latitude:18°18'36"N (18.309881)
Longitude:15°58'11"W (-15.969630)
Elevation:10 ft (3 m)
Variation:5.75°W (WMM2015v2 magnetic declination)
0.15° annual change
Runways:2
Longest:11155 × 197 ft (3400 × 60 m), paved

Time
Time Zone:UTC+0
Local Time:

Weather
METAR:GQNO 041400Z 04005KT 330V090 CAVOK 27/02 Q1014 NOSIG
TAF:GQNO 041100Z 0412/0518 05010KT 8000 NSC
BECMG 0419/0421 35008KT
BECMG 0507/0510 07010KT

Related Locations
Nearby:
Farthest:BMY: 12331 mi / 19844 km
Waala [Belep Islands Airport], Īle Art, Belep Islands, NC

Find:

   beyond  
but within

Other Information
Maps:
NOTAMs:
Links:
Sources:

  
  • flag of Mauritania
  

Sectional Chart

Flight Planning
at skyvector.com

Satellite Image

Google Maps Satellite view

 

Copyright © 2004-2019 Karl L. Swartz. All rights reserved.
The Great Circle Mapper name and logo are trademarks of the Great Circle Mapper.
All other trademarks mentioned herein belong to their respective owners.
Please see credits for attibutions and further copyright information.

  Follow gcmap on Facebook Follow gcmap on Twitter GCmap on LinkedIn

hCard Microformat

Geo Microformat